Terug naar catalogus

INSAT 3DS

ActiefWeerGEO
NORAD 58990·PAYLOAD·🇮🇳 India

Gelanceerd Feb 17, 2024 vanaf Satish Dhawan Space Centre

Loading…

TLE

VersSource: Space-Track

Epoch: Sep 14, 2026, 14:11 UTC

1 58990U 24033A   26257.59139441 -.00000164  00000-0  00000-0 0  9993
2 58990   0.0353 250.1827 0001262 286.1239 112.2301  1.00273502 47967

Volg INSAT 3DS in realtime met AllMySat

Download on the App Store